Deer Park, WA
on Sunday, November 18, 2012

Sunday
Previous Day Next Day
Daily Summary
 ActualAverageRecord
Temperature
Mean Temperature °F 33°F  
Max Temperature 44°F 40°F 55°F (2003)
Min Temperature 35°F 26°F 12°F (2000)
Degree Days
Heating Degree Days 25 32  
Month to date heating degree days 485 525  
Since 1 July heating degree days 1397 1593  
Cooling Degree Days 0 0  
Month to date cooling degree days 0 0  
Year to date cooling degree days 232 187  
Moisture
Dew Point 34°F   
Average Humidity 79    
Maximum Humidity 92    
Minimum Humidity 65    
Precipitation
Precipitation 0.05 in 0.12 in 0.57 in (2013)
Month to date precipitation 1.39 1.90  
Year to date precipitation 21.39 17.96  
Wind
Wind Speed 7 mph   
Max Wind Speed 23 mph   
Max Gust Speed 30 mph   
Visibility 10 miles   
Events Rain   

Key: T is trace of precipitation, MM is missing value
Source: NWS Daily Summary
Time(PST)TemperatureDew PointHumidity Pressure Visibility Wind DirectionWind SpeedGust SpeedPrecipitationEvents Conditions
12:53 AM 39.0°F 37.0°F 93% 29.74 in 6.0 miles SSW 17.3 mph 28.8 mph 0.04 in Rain Rain
1:24 AM 39.2°F 37.4°F 93% 29.72 in 10.0 miles SSW 17.3 mph 24.2 mph 0.01 in   Overcast
1:53 AM 39.0°F 37.0°F 93% 29.76 in 10.0 miles SSW 13.8 mph 25.3 mph 0.01 in   Overcast
2:38 AM 39.2°F 37.4°F 93% 29.76 in 10.0 miles SSW 16.1 mph - N/A   Overcast
2:53 AM 39.0°F 36.0°F 89% 29.80 in 10.0 miles SSW 15.0 mph 24.2 mph N/A   Overcast
3:53 AM 37.9°F 35.1°F 89% 29.83 in 10.0 miles SSW 18.4 mph 23.0 mph N/A   Overcast
4:13 AM 37.4°F 35.6°F 93% 29.81 in 10.0 miles SSW 8.1 mph - N/A   Overcast
4:53 AM 37.0°F 34.0°F 89% 29.88 in 10.0 miles SE 6.9 mph - N/A   Overcast
5:15 AM 37.4°F 33.8°F 87% 29.86 in 10.0 miles SE 10.4 mph - N/A   Overcast
5:53 AM 37.0°F 34.0°F 89% 29.90 in 10.0 miles South 3.5 mph - N/A   Overcast
6:42 AM 35.6°F 33.8°F 93% 29.86 in 10.0 miles South 9.2 mph - N/A   Scattered Clouds
6:53 AM 35.1°F 33.1°F 92% 29.91 in 10.0 miles ESE 4.6 mph - N/A   Scattered Clouds
7:04 AM 35.6°F 33.8°F 93% 29.87 in 10.0 miles Calm Calm - N/A   Mostly Cloudy
7:12 AM 35.6°F 33.8°F 93% 29.87 in 10.0 miles Calm Calm - N/A   Mostly Cloudy
7:28 AM 35.6°F 33.8°F 93% 29.88 in 10.0 miles ESE 3.5 mph - N/A   Overcast
7:53 AM 37.0°F 34.0°F 89% 29.92 in 10.0 miles SSE 8.1 mph - N/A   Mostly Cloudy
8:27 AM 37.4°F 33.8°F 87% 29.89 in 10.0 miles SSE 8.1 mph - N/A   Partly Cloudy
8:53 AM 37.0°F 33.1°F 86% 29.92 in 10.0 miles South 9.2 mph - N/A   Partly Cloudy
9:53 AM 39.9°F 33.1°F 77% 29.94 in 10.0 miles SSE 8.1 mph - N/A   Mostly Cloudy
10:53 AM 39.9°F 34.0°F 79% 29.94 in 10.0 miles SSE 5.8 mph - N/A   Overcast
11:53 AM 42.1°F 33.1°F 70% 29.93 in 10.0 miles SSE 5.8 mph - N/A   Overcast
12:53 PM 43.0°F 34.0°F 71% 29.93 in 10.0 miles SSE 5.8 mph - N/A   Overcast
1:53 PM 44.1°F 34.0°F 68% 29.91 in 10.0 miles ESE 5.8 mph - N/A   Overcast
2:53 PM 44.1°F 34.0°F 68% 29.91 in 10.0 miles SSE 6.9 mph - N/A   Overcast
3:53 PM 43.0°F 37.0°F 80% 29.91 in 10.0 miles NE 3.5 mph - N/A   Overcast
4:53 PM 41.0°F 36.0°F 82% 29.92 in 10.0 miles Calm Calm - N/A   Overcast
5:53 PM 42.1°F 34.0°F 73% 29.92 in 10.0 miles SE 8.1 mph - N/A   Overcast
6:53 PM 39.9°F 34.0°F 79% 29.90 in 10.0 miles ENE 3.5 mph - N/A   Overcast
7:53 PM 37.9°F 33.1°F 83% 29.88 in 10.0 miles ENE 3.5 mph - N/A   Overcast
8:53 PM 41.0°F 32.0°F 70% 29.88 in 10.0 miles East 5.8 mph - N/A   Mostly Cloudy
9:53 PM 39.0°F 33.1°F 79% 29.88 in 10.0 miles Calm Calm - N/A   Overcast
10:53 PM 39.0°F 34.0°F 82% 29.88 in 10.0 miles NW 3.5 mph - N/A   Overcast
11:53 PM 41.0°F 33.1°F 73% 29.89 in 10.0 miles SSW 6.9 mph - 0.00 in Rain Light Rain
Moon Phase
Nov. 18 Nov. 20 Nov. 28 Dec. 06 Dec. 13
Sunrise:07:01 AM (PST) Moon Rise:11:26 AM (PST)11/18
Sunset:04:08 PM (PST) Moon Set:09:40 PM (PST)11/18

Copyright © 2014 The Weather Underground, Inc.